#timestamp,LO_Frequency,Hit 
1504209615.9,286046996.6,N
1504209635.7,286046999.5,N
1504209655.5,286047001.1,N
1504209675.4,286046998.6,N
1504209695.2,286047000.1,N
1504209715.0,286047001.4,N
1504209715.9,286047001.4,N
1504209735.8,286046999.7,N
1504209755.6,286047002.3,N
1504209775.4,286047002.4,N
1504209795.3,286046998.4,N
1504209815.1,286047001.1,N
1504209816.0,286047001.1,N
1504209835.8,286047000.3,N
1504209855.7,286047000.6,N
1504209875.5,286046996.6,N
1504209895.3,286046996.9,N
1504209915.2,286046999.4,N
1504209935.9,286046999.3,N
1504209955.7,286047002.7,N
1504209975.5,286047003.0,N
1504209995.4,286047005.6,N
1504210015.2,286047004.7,N
1504210035.1,286047007.1,P
1504210036.0,286047007.1,N
1504210055.8,286047004.7,N
1504210075.6,286047003.3,N
1504210095.5,286047003.0,N
1504210115.3,286047003.6,N
1504210135.1,286047002.1,N
1504210155.8,286047002.1,N
1504210175.7,286047003.9,N
1504210195.5,286047002.2,N
1504210215.3,286047001.2,N
1504210235.2,286046998.4,N
1504210255.9,286046998.8,N
1504210275.7,286047001.1,N
1504210295.6,286047000.2,N
1504210315.4,286047004.4,N
1504210335.2,286047003.7,N
1504210355.1,286047004.1,N
1504210356.0,286047004.1,N
1504210375.8,286047004.2,N
1504210395.6,286047002.9,N
1504210415.4,286047004.8,N
1504210435.3,286047005.2,N
1504210455.1,286047004.1,N
1504210475.8,286047006.0,N
1504210495.7,286047005.5,N
1504210515.5,286047005.9,N
1504210535.3,286047002.9,N
1504210555.2,286047007.4,P
1504210575.0,286047001.7,N
1504210575.9,286047001.7,N
1504210595.8,286047004.0,N
1504210615.6,286047003.5,N
1504210635.4,286047007.0,P
1504210655.3,286047005.6,P
1504210675.1,286047006.7,P
1504210695.8,286047000.1,P
1504210715.7,286047005.5,N
1504210735.5,286047005.3,N
1504210755.3,286047005.2,N
1504210775.2,286047003.4,N
1504210795.9,286047001.8,N
1504210815.7,286047003.5,N
1504210835.6,286047005.8,P
1504210855.4,286047000.8,N
1504210875.2,286047000.1,N
1504210895.1,286047002.6,N
1504210896.0,286047002.6,N
1504210915.8,286047004.8,N
1504210935.6,286047000.3,N
1504210955.5,286046996.7,N
1504210975.3,286046993.6,N
1504210995.1,286046990.5,N
1504211015.9,286046987.6,N
1504211035.7,286046987.0,N
1504211055.5,286046992.8,N
1504211075.3,286046995.8,N
1504211095.2,286046996.8,N
1504211115.0,286046994.9,N
1504211115.9,286046994.9,N
1504211135.7,286046996.5,N
1504211155.6,286046998.4,N
1504211175.4,286047002.3,N
1504211195.2,286047000.7,N
1504211215.1,286046999.8,N
1504211216.0,286046999.8,N
1504211235.8,286047001.2,N
1504211255.6,286047001.7,N
1504211275.5,286047010.4,N
1504211295.3,286047011.6,N
1504211315.1,286047013.5,N
1504211335.9,286047012.7,N
1504211355.7,286047017.1,N
1504211375.5,286047017.2,N
1504211395.4,286047013.1,N
1504211415.2,286047015.6,N
1504211435.0,286047017.0,N
1504211435.9,286047017.0,N
1504211455.8,286047015.0,N
1504211475.6,286047013.5,N
1504211495.4,286047009.5,N
1504211515.2,286047003.5,N
1504211535.1,286047006.9,N
1504211536.0,286047006.9,N
1504211555.8,286047006.6,N
1504211575.6,286047007.5,N
1504211595.5,286047009.1,N
1504211615.3,286047008.3,N
1504211635.1,286047008.6,N
1504211655.9,286047007.6,N
1504211675.7,286047007.1,N
1504211695.5,286047002.9,N
1504211715.4,286047005.2,N
1504211735.2,286047004.4,N
1504211755.0,286047007.2,N
1504211755.9,286047007.2,N
1504211775.8,286047005.0,N
1504211795.6,286047003.6,N
1504211815.4,286047003.6,N
1504211835.2,286047001.8,N
1504211855.1,286047001.4,N
1504211856.0,286047001.4,N
1504211875.8,286047000.2,N
1504211895.6,286047000.2,N
1504211915.5,286047000.8,N
1504211935.3,286047000.6,N
1504211955.1,286046999.0,N
1504211975.9,286046998.3,N
1504211995.7,286047000.8,N
1504212015.5,286046997.7,N
1504212035.4,286046995.8,N
1504212055.2,286046992.1,N
1504212075.0,286046994.4,N
1504212075.9,286046994.4,N
1504212095.8,286046994.7,N
1504212115.6,286046994.3,N
1504212135.4,286046990.7,N
1504212155.3,286046988.5,N
1504212175.1,286046991.1,N
1504212176.0,286046991.1,N
1504212195.8,286046992.3,N
1504212215.7,286046992.0,N
1504212235.5,286046993.1,N
1504212255.3,286046994.4,N
1504212275.2,286046993.9,N
1504212295.9,286046998.2,N
1504212315.7,286047003.1,N
1504212335.5,286047007.2,N
1504212355.4,286047004.5,N
1504212375.2,286047002.7,N
1504212395.0,286047002.4,N
1504212395.9,286047002.4,N
1504212415.8,286047001.8,N
1504212435.6,286046999.0,N
1504212455.4,286046999.1,N
1504212475.3,286046997.9,N
1504212495.1,286046996.8,N
1504212515.8,286046998.7,N
1504212535.7,286046998.2,N
1504212555.5,286046998.7,N
1504212575.3,286046999.1,N
1504212595.2,286046996.8,N
1504212615.9,286046995.5,N
1504212635.7,286046996.1,N
1504212655.6,286046994.5,N
1504212675.4,286046991.8,N
1504212695.2,286046997.9,N
1504212715.0,286046998.7,N
1504212715.9,286046998.7,N
1504212735.8,286046997.9,N
1504212755.6,286046996.2,N
1504212775.4,286046996.3,N
1504212795.3,286046998.5,N
1504212815.1,286046995.2,N
1504212835.8,286046998.8,N
1504212855.7,286047004.2,N
1504212875.5,286047002.0,N
1504212895.3,286047001.9,N
1504212915.2,286047001.5,N
1504212935.9,286047001.6,N
1504212955.7,286047002.3,N
1504212975.6,286047003.6,N
1504212995.4,286047001.8,N
1504213015.2,286046998.6,N
1504213035.1,286046996.9,N
1504213036.0,286046996.9,N
1504213055.8,286046998.6,N
1504213075.6,286046999.2,N
1504213095.4,286047000.3,N
1504213115.3,286046998.4,N
1504213135.1,286046998.9,N
1504213155.8,286046997.9,N
1504213175.7,286046993.7,N
1504213195.5,286046993.4,N
